Total_Precipitation_Accumulation
0.32 0.41 0.36 0.43 0.42 0.38 0.33 0.36 0.41 0.44 0.61 0.67 0.56 0.52 0.61 0.61 0.81 0.64 0.34 0.14 0.06 0.02 0.00 0.01 0.03 0.03 0.07 0.04 0.07 0.08 0.14 0.13 0.08 0.12 0.19 0.21 0.17 0.11 0.10 0.11 0.11 0.14 0.19 0.27 0.31 0.38 0.48 0.50 0.56 0.65 0.77 0.82 0.92 1.16 1.42 1.60 1.93 2.26 2.71 3.00 3.44 3.53 4.07 4.36 4.20 4.41 4.06 3.62 3.19 3.32 2.91 2.94 3.45 3.84
0.33 0.35 0.41 0.38 0.39 0.36 0.40 0.49 0.39 0.39 0.58 0.60 0.62 0.63 0.60 0.63 0.89 0.73 0.55 0.30 0.10 0.05 0.01 0.00 0.01 0.01 0.02 0.06 0.08 0.06 0.07 0.18 0.10 0.12 0.13 0.20 0.17 0.14 0.14 0.09 0.10 0.09 0.11 0.15 0.20 0.27 0.36 0.47 0.51 0.55 0.59 0.82 0.86 0.93 1.28 1.50 1.89 2.24 2.51 2.97 3.06 3.01 3.24 3.45 3.84 3.90 3.86 3.81 3.61 2.95 2.78 2.64 3.12 3.60
0.40 0.46 0.42 0.39 0.40 0.36 0.39 0.45 0.45 0.47 0.56 0.57 0.56 0.52 0.53 0.68 0.68 0.79 0.69 0.67 0.23 0.06 0.06 0.03 0.00 0.01 0.02 0.03 0.06 0.10 0.12 0.10 0.07 0.14 0.15 0.18 0.19 0.16 0.14 0.12 0.08 0.08 0.11 0.09 0.12 0.18 0.27 0.40 0.49 0.50 0.54 0.56 0.76 0.77 0.96 1.21 1.40 1.88 2.28 2.56 2.90 3.08 2.84 3.23 3.14 3.43 3.59 3.56 3.61 3.40 3.05 2.77 2.83 2.98
0.32 0.37 0.44 0.42 0.39 0.41 0.48 0.51 0.51 0.53 0.57 0.61 0.70 0.70 0.63 0.62 0.61 0.71 0.92 0.79 0.45 0.09 0.06 0.06 0.05 0.05 0.06 0.11 0.06 0.07 0.09 0.13 0.09 0.12 0.11 0.17 0.18 0.21 0.18 0.12 0.13 0.09 0.07 0.09 0.10 0.11 0.18 0.30 0.43 0.46 0.53 0.56 0.63 0.72 0.80 0.90 1.13 1.50 1.79 2.45 2.65 2.97 2.98 2.90 3.05 3.14 3.28 3.70 3.74 3.69 3.45 3.10 2.96 3.03
0.28 0.37 0.44 0.47 0.41 0.47 0.55 0.58 0.61 0.57 0.59 0.70 0.78 0.80 0.86 0.72 0.61 0.69 0.90 0.82 0.53 0.17 0.16 0.08 0.08 0.11 0.12 0.15 0.11 0.09 0.06 0.13 0.12 0.13 0.09 0.13 0.14 0.21 0.23 0.22 0.16 0.13 0.10 0.06 0.08 0.17 0.17 0.19 0.32 0.42 0.53 0.55 0.59 0.64 0.69 0.75 0.97 1.20 1.30 1.58 2.17 2.55 2.96 2.93 2.81 2.92 3.30 3.34 3.76 3.97 4.11 3.74 3.27 3.28
0.23 0.36 0.32 0.29 0.33 0.38 0.51 0.86 0.69 0.53 0.57 0.63 0.81 0.80 0.85 0.86 0.68 0.56 0.91 0.93 0.76 0.35 0.20 0.10 0.12 0.16 0.15 0.22 0.18 0.10 0.05 0.05 0.08 0.11 0.11 0.10 0.09 0.16 0.13 0.20 0.21 0.19 0.14 0.11 0.09 0.09 0.11 0.21 0.23 0.47 0.42 0.47 0.52 0.58 0.61 0.71 0.80 0.96 0.97 1.19 1.68 2.25 2.73 2.73 2.61 2.81 2.78 3.16 3.52 3.73 3.81 3.87 3.85 3.45
0.27 0.33 0.31 0.30 0.28 0.38 0.46 0.48 0.61 0.70 0.74 0.61 0.74 0.76 0.76 0.78 0.66 0.55 0.70 0.96 0.96 0.62 0.37 0.14 0.19 0.19 0.26 0.22 0.23 0.17 0.10 0.06 0.05 0.11 0.07 0.09 0.09 0.08 0.13 0.17 0.15 0.19 0.19 0.16 0.11 0.09 0.09 0.26 0.20 0.22 0.41 0.48 0.49 0.47 0.55 0.62 0.61 0.69 0.75 0.91 1.24 1.67 2.30 2.69 2.55 2.59 2.69 2.89 3.12 3.19 3.43 3.70 3.51 3.76
0.28 0.32 0.34 0.28 0.32 0.34 0.40 0.41 0.44 0.49 0.63 0.69 0.87 0.73 0.73 0.81 0.79 0.60 0.61 0.77 0.96 0.74 0.47 0.30 0.17 0.20 0.26 0.26 0.25 0.20 0.16 0.15 0.11 0.09 0.08 0.07 0.07 0.07 0.10 0.14 0.12 0.12 0.15 0.18 0.19 0.16 0.10 0.10 0.14 0.20 0.30 0.39 0.47 0.47 0.44 0.45 0.50 0.49 0.59 0.73 0.93 1.35 1.62 2.53 2.68 2.49 2.23 2.42 2.67 3.07 3.04 3.44 3.47 3.19
0.24 0.27 0.31 0.30 0.33 0.34 0.41 0.37 0.42 0.40 0.46 0.55 0.65 0.70 0.66 0.74 0.69 0.72 0.79 0.87 0.91 0.93 0.75 0.52 0.37 0.28 0.27 0.33 0.33 0.26 0.28 0.25 0.21 0.17 0.13 0.11 0.11 0.10 0.08 0.08 0.07 0.06 0.10 0.15 0.18 0.20 0.19 0.12 0.09 0.11 0.16 0.34 0.44 0.45 0.41 0.40 0.42 0.44 0.52 0.50 0.72 1.03 1.24 1.56 2.33 2.62 2.36 2.07 2.21 2.49 2.81 2.97 3.57 3.34
0.28 0.34 0.38 0.29 0.34 0.37 0.44 0.42 0.39 0.37 0.43 0.52 0.62 0.69 0.71 0.66 0.74 0.74 0.70 0.73 0.91 0.97 0.76 0.56 0.53 0.43 0.45 0.47 0.39 0.35 0.30 0.30 0.29 0.25 0.21 0.15 0.12 0.13 0.14 0.12 0.11 0.07 0.06 0.09 0.16 0.19 0.25 0.25 0.16 0.11 0.12 0.17 0.29 0.43 0.47 0.42 0.34 0.43 0.41 0.45 0.54 0.91 1.11 1.24 1.48 2.22 2.41 2.38 1.95 2.23 2.55 2.79 3.12 3.24
0.29 0.30 0.33 0.35 0.37 0.43 0.50 0.53 0.55 0.53 0.50 0.55 0.59 0.66 0.74 0.77 0.74 0.68 0.69 0.71 0.75 0.90 0.81 0.68 0.68 0.54 0.45 0.43 0.43 0.43 0.38 0.37 0.31 0.30 0.26 0.23 0.18 0.13 0.12 0.19 0.15 0.10 0.07 0.09 0.08 0.13 0.14 0.16 0.22 0.17 0.11 0.15 0.20 0.32 0.35 0.51 0.54 0.38 0.44 0.53 0.47 0.63 0.93 1.06 1.10 1.39 2.01 2.27 2.43 2.01 2.17 2.43 2.56 2.79
0.31 0.32 0.35 0.36 0.39 0.43 0.51 0.57 0.56 0.63 0.63 0.68 0.80 0.73 0.63 0.65 0.74 0.75 0.69 0.67 0.72 0.77 0.73 0.79 0.69 0.55 0.53 0.52 0.46 0.50 0.60 0.67 0.54 0.37 0.31 0.28 0.21 0.18 0.12 0.11 0.17 0.22 0.23 0.14 0.10 0.10 0.13 0.14 0.15 0.15 0.15 0.13 0.16 0.23 0.36 0.36 0.40 0.38 0.40 0.48 0.50 0.52 0.69 0.85 0.97 1.11 1.37 1.81 2.14 2.28 2.19 2.30 2.39 2.46
0.29 0.28 0.33 0.40 0.42 0.43 0.43 0.45 0.48 0.53 0.66 0.80 0.97 0.67 0.67 0.79 0.84 0.81 0.75 0.71 0.65 0.67 0.66 0.66 0.69 0.75 0.69 0.63 0.64 0.69 0.74 0.69 0.51 0.36 0.33 0.29 0.21 0.17 0.16 0.14 0.12 0.16 0.20 0.21 0.24 0.18 0.17 0.16 0.17 0.18 0.17 0.14 0.14 0.15 0.27 0.37 0.45 0.42 0.52 0.48 0.47 0.51 0.60 0.65 0.80 0.91 1.11 1.29 1.64 1.94 2.34 2.61 2.45 2.54
0.34 0.29 0.28 0.32 0.36 0.39 0.38 0.40 0.44 0.50 0.54 0.71 0.71 0.75 0.96 0.96 0.99 0.94 0.90 0.89 0.79 0.71 0.72 0.59 0.71 0.72 0.67 0.60 0.61 0.60 0.51 0.55 0.52 0.50 0.52 0.46 0.37 0.33 0.28 0.23 0.20 0.19 0.22 0.25 0.26 0.21 0.18 0.17 0.18 0.20 0.18 0.17 0.13 0.14 0.19 0.31 0.42 0.41 0.45 0.63 0.76 0.60 0.51 0.57 0.59 0.78 0.90 1.15 1.26 1.57 1.89 2.37 2.83 2.69
0.36 0.33 0.29 0.26 0.27 0.29 0.27 0.30 0.33 0.38 0.55 0.61 0.54 0.58 0.70 0.81 1.05 1.19 1.02 0.85 0.87 0.91 0.85 0.83 0.98 1.02 0.88 0.80 0.63 0.65 0.67 0.67 0.77 0.57 0.53 0.54 0.63 0.60 0.52 0.45 0.30 0.23 0.24 0.25 0.25 0.23 0.20 0.20 0.20 0.18 0.17 0.29 0.29 0.14 0.12 0.17 0.43 0.42 0.43 0.56 0.62 0.72 0.67 0.59 0.68 0.64 0.76 0.90 1.10 1.29 1.51 1.85 2.24 2.72
0.44 0.40 0.40 0.32 0.34 0.32 0.28 0.28 0.32 0.43 0.53 0.45 0.45 0.51 0.64 0.75 0.90 1.02 1.15 1.06 0.90 0.86 0.90 0.90 0.95 1.11 1.08 0.90 0.76 0.86 0.97 0.85 0.88 0.86 0.89 0.74 0.72 0.72 0.61 0.42 0.33 0.26 0.24 0.28 0.30 0.26 0.22 0.21 0.23 0.23 0.18 0.15 0.15 0.15 0.16 0.14 0.21 0.32 0.43 0.44 0.54 0.60 0.65 0.63 0.78 0.78 0.72 0.82 1.01 1.10 1.28 1.52 1.85 2.19
0.35 0.32 0.31 0.31 0.29 0.31 0.28 0.33 0.43 0.61 0.50 0.37 0.37 0.43 0.56 0.62 0.73 0.94 1.13 1.12 0.90 0.93 0.94 0.87 0.77 0.81 0.98 0.92 0.84 0.98 0.97 0.98 0.95 0.85 0.88 0.82 0.72 0.69 0.69 0.55 0.40 0.31 0.30 0.39 0.44 0.39 0.27 0.25 0.26 0.26 0.22 0.19 0.15 0.16 0.19 0.19 0.24 0.28 0.42 0.51 0.51 0.56 0.55 0.54 0.59 0.70 0.73 0.88 0.99 1.08 1.10 1.31 1.59 1.76
0.30 0.32 0.38 0.36 0.35 0.33 0.31 0.36 0.60 0.65 0.46 0.36 0.36 0.46 0.58 0.59 0.54 0.58 0.72 0.91 1.00 0.93 1.00 0.97 0.88 0.74 0.78 0.81 0.79 0.86 0.93 1.00 1.09 0.88 0.81 0.71 0.78 0.85 0.90 0.66 0.63 0.60 0.59 0.63 0.58 0.50 0.35 0.28 0.25 0.24 0.20 0.18 0.20 0.19 0.21 0.21 0.23 0.30 0.39 0.47 0.55 0.57 0.57 0.55 0.59 0.69 0.70 0.75 0.87 1.11 1.17 1.28 1.43 1.68
0.30 0.25 0.26 0.30 0.32 0.36 0.30 0.37 0.55 0.69 0.66 0.54 0.49 0.54 0.57 0.58 0.54 0.52 0.57 0.66 0.74 0.89 0.96 0.89 0.80 0.72 0.68 0.72 0.68 0.74 0.82 0.92 1.01 1.04 0.86 0.76 0.75 0.91 1.11 0.93 0.79 0.79 0.74 0.69 0.75 0.78 0.43 0.30 0.26 0.22 0.19 0.17 0.16 0.18 0.22 0.22 0.25 0.30 0.34 0.43 0.53 0.59 0.61 0.63 0.63 0.64 0.70 0.81 0.84 0.85 1.00 1.22 1.34 1.58
0.33 0.27 0.26 0.29 0.31 0.36 0.31 0.36 0.50 0.57 0.53 0.46 0.54 0.56 0.54 0.57 0.56 0.54 0.55 0.62 0.71 0.81 0.93 0.92 0.88 0.90 0.79 0.81 0.82 0.82 0.83 0.92 0.95 0.95 0.86 0.87 0.93 0.95 1.00 0.88 0.70 0.68 0.70 0.67 0.72 0.59 0.49 0.37 0.28 0.22 0.19 0.19 0.20 0.17 0.19 0.16 0.21 0.24 0.29 0.33 0.42 0.53 0.57 0.60 0.65 0.67 0.72 0.75 0.83 0.80 0.89 1.12 1.29 1.37
0.44 0.58 0.43 0.42 0.51 0.49 0.39 0.41 0.63 0.71 0.59 0.50 0.52 0.54 0.54 0.54 0.55 0.54 0.50 0.59 0.86 1.05 1.10 1.06 0.97 0.90 0.90 0.89 0.97 1.02 0.90 0.88 0.99 1.10 1.13 0.93 0.69 0.80 0.88 0.71 0.64 0.57 0.61 0.71 0.65 0.57 0.46 0.35 0.30 0.33 0.29 0.24 0.20 0.21 0.20 0.16 0.18 0.18 0.25 0.26 0.31 0.39 0.47 0.54 0.58 0.65 0.70 0.73 0.81 0.86 0.89 1.01 1.09 1.27
0.39 0.34 0.32 0.43 0.58 0.56 0.49 0.44 0.68 0.76 0.79 0.66 0.61 0.54 0.51 0.52 0.52 0.45 0.43 0.48 0.56 0.81 1.12 1.27 1.23 1.37 1.42 1.27 1.23 1.26 1.31 1.35 1.33 1.28 1.20 0.91 0.83 0.92 0.79 0.71 0.56 0.54 0.61 0.73 0.69 0.76 0.51 0.41 0.37 0.36 0.37 0.36 0.32 0.25 0.23 0.19 0.17 0.17 0.22 0.25 0.26 0.27 0.36 0.47 0.52 0.57 0.62 0.69 0.73 0.82 0.91 0.94 1.05 1.24
0.38 0.35 0.31 0.33 0.46 0.49 0.47 0.62 0.87 0.76 0.76 0.66 0.59 0.58 0.57 0.56 0.52 0.45 0.41 0.44 0.53 0.58 0.70 0.83 0.94 1.01 1.03 1.10 0.99 0.93 0.94 1.00 1.09 1.30 1.22 0.91 0.91 0.99 0.82 0.84 0.85 0.85 0.73 0.69 0.86 0.87 0.54 0.58 0.55 0.45 0.53 0.53 0.34 0.25 0.25 0.23 0.26 0.22 0.23 0.25 0.28 0.27 0.29 0.33 0.37 0.47 0.55 0.71 0.65 0.73 0.81 0.88 1.02 1.23
0.35 0.29 0.31 0.31 0.50 0.67 0.69 0.72 0.86 0.93 1.36 0.88 0.67 0.56 0.59 0.65 0.59 0.44 0.40 0.39 0.44 0.51 0.55 0.63 0.73 0.79 0.84 1.02 1.02 0.86 0.81 0.91 0.98 1.03 0.92 0.86 0.90 0.88 0.81 0.86 0.91 0.89 0.67 0.59 0.91 0.87 0.56 0.79 0.80 0.91 0.66 0.54 0.47 0.34 0.26 0.28 0.24 0.27 0.26 0.25 0.30 0.28 0.31 0.29 0.30 0.33 0.44 0.54 0.70 0.79 0.77 0.79 0.96 1.09
0.40 0.32 0.30 0.31 0.38 0.49 0.61 0.73 0.95 1.08 1.19 1.08 0.85 0.90 0.80 0.62 0.48 0.34 0.34 0.35 0.38 0.45 0.46 0.48 0.57 0.60 0.75 0.90 0.96 0.87 0.88 0.89 0.93 0.90 0.82 0.83 0.84 0.90 0.82 0.75 0.67 0.65 0.58 0.56 0.65 0.70 0.73 0.77 0.83 0.94 0.96 0.92 0.57 0.58 0.46 0.30 0.32 0.31 0.28 0.27 0.29 0.25 0.30 0.30 0.29 0.37 0.34 0.46 0.59 0.81 0.89 0.93 1.03 1.07
0.33 0.29 0.29 0.28 0.31 0.37 0.54 0.79 0.87 1.07 1.12 1.24 0.87 0.71 0.99 0.93 0.82 0.44 0.36 0.38 0.42 0.45 0.47 0.48 0.52 0.52 0.60 0.74 0.85 0.73 0.73 0.79 0.85 0.85 0.79 0.78 0.80 0.85 0.86 0.84 0.80 0.68 0.59 0.48 0.57 0.68 0.65 0.76 0.68 0.80 0.74 0.82 0.60 0.56 0.50 0.56 0.37 0.34 0.33 0.31 0.29 0.30 0.28 0.31 0.30 0.31 0.33 0.34 0.43 0.59 0.79 0.94 1.03 1.23
0.28 0.27 0.29 0.27 0.27 0.35 0.53 0.79 0.84 1.02 1.19 1.18 1.09 1.18 0.89 0.83 0.82 0.76 0.66 0.66 0.57 0.44 0.42 0.48 0.51 0.44 0.42 0.52 0.71 0.64 0.59 0.63 0.71 0.78 0.80 0.70 0.80 1.06 0.83 0.77 0.86 0.83 0.79 0.70 0.71 0.79 0.84 0.80 0.67 0.92 0.75 0.66 0.70 0.74 0.61 0.59 0.57 0.58 0.41 0.38 0.40 0.35 0.41 0.34 0.33 0.31 0.28 0.31 0.33 0.52 0.70 0.78 0.90 1.12
0.33 0.38 0.35 0.34 0.43 0.55 0.62 0.70 0.76 0.85 0.91 0.90 1.00 0.96 0.86 0.67 0.74 0.68 0.70 0.65 0.57 0.52 0.46 0.45 0.45 0.39 0.38 0.37 0.45 0.53 0.52 0.62 0.71 0.67 0.61 0.63 0.79 0.72 0.74 0.84 0.68 0.67 0.69 0.72 0.69 0.74 0.80 0.77 0.64 0.59 0.67 0.73 0.73 0.73 0.65 0.55 0.56 0.68 0.57 0.45 0.44 0.39 0.38 0.34 0.35 0.38 0.38 0.35 0.37 0.44 0.56 0.69 0.87 1.08
0.28 0.33 0.50 0.45 0.48 0.50 0.49 0.47 0.61 0.72 0.83 0.95 0.80 0.60 0.67 0.69 0.68 0.78 0.72 0.64 0.53 0.53 0.47 0.39 0.32 0.29 0.29 0.29 0.32 0.37 0.52 0.56 0.75 0.86 0.80 0.82 0.69 0.62 0.67 0.77 0.71 0.65 0.78 0.78 0.85 0.89 0.76 0.70 0.67 0.62 0.66 0.55 0.66 0.59 0.60 0.61 0.69 0.65 0.57 0.72 0.69 0.46 0.41 0.40 0.43 0.39 0.42 0.54 0.46 0.50 0.52 0.66 0.74 0.91
0.27 0.30 0.31 0.32 0.34 0.40 0.43 0.43 0.55 0.60 0.55 0.62 0.75 0.70 0.69 0.84 0.84 0.76 0.62 0.55 0.57 0.52 0.37 0.28 0.25 0.26 0.26 0.31 0.29 0.34 0.50 0.71 0.83 0.79 0.76 0.69 0.61 0.66 0.70 0.74 0.72 0.71 0.70 0.74 0.81 0.96 0.82 0.76 0.75 0.73 0.67 0.64 0.59 0.55 0.53 0.64 0.75 0.66 0.86 0.71 0.61 0.72 0.76 0.60 0.54 0.52 0.55 0.54 0.59 0.57 0.56 0.60 0.67 0.87
0.38 0.32 0.34 0.44 0.52 0.50 0.48 0.50 0.43 0.40 0.46 0.51 0.62 0.82 0.83 0.87 0.84 0.69 0.58 0.51 0.45 0.42 0.37 0.31 0.24 0.21 0.25 0.29 0.39 0.46 0.57 0.73 0.67 0.65 0.71 0.73 0.66 0.61 0.61 0.69 0.69 0.68 0.71 0.70 0.78 0.82 0.84 0.80 0.80 0.85 0.83 0.73 0.71 0.60 0.53 0.63 0.72 0.74 0.84 0.79 0.82 1.05 0.96 0.71 0.58 0.50 0.54 0.68 0.68 0.69 0.58 0.59 0.56 0.76
0.41 0.41 0.49 0.47 0.44 0.46 0.47 0.46 0.51 0.53 0.46 0.42 0.47 0.73 0.97 0.98 0.84 0.54 0.49 0.40 0.42 0.37 0.32 0.27 0.26 0.30 0.33 0.39 0.42 0.46 0.46 0.52 0.53 0.54 0.64 0.77 0.77 0.72 0.69 0.72 0.74 0.66 0.65 0.65 0.67 0.69 0.74 0.82 0.88 1.03 0.89 0.70 0.84 0.78 0.69 0.76 0.77 0.69 0.77 0.91 0.85 0.74 0.91 1.16 0.92 0.79 0.65 0.58 0.62 0.65 0.66 0.68 0.71 0.84
0.40 0.43 0.42 0.43 0.44 0.41 0.48 0.47 0.48 0.46 0.49 0.48 0.40 0.46 0.67 0.76 0.75 0.68 0.44 0.46 0.42 0.39 0.42 0.39 0.34 0.31 0.32 0.32 0.37 0.46 0.51 0.44 0.45 0.50 0.56 0.64 0.75 0.84 0.79 0.78 0.63 0.62 0.63 0.67 0.74 0.73 0.75 0.78 0.78 1.09 1.06 0.78 0.82 0.85 0.90 0.92 0.87 0.77 0.77 0.88 0.90 0.86 0.77 0.76 0.79 0.73 0.73 0.75 0.72 0.60 0.60 0.65 0.63 0.69
0.40 0.46 0.45 0.46 0.43 0.38 0.35 0.33 0.33 0.35 0.40 0.44 0.42 0.45 0.49 0.65 0.71 0.75 0.55 0.45 0.43 0.39 0.41 0.46 0.36 0.37 0.40 0.45 0.39 0.48 0.39 0.37 0.37 0.42 0.57 0.65 0.67 0.77 0.90 0.83 0.67 0.55 0.54 0.57 0.61 0.70 0.78 0.78 0.71 0.75 0.88 0.91 0.84 0.87 0.95 1.01 0.94 0.86 0.90 0.95 0.95 0.87 0.75 0.70 0.68 0.65 0.72 0.72 0.74 0.85 0.77 0.75 0.69 0.68
0.35 0.40 0.38 0.42 0.43 0.38 0.32 0.32 0.33 0.36 0.43 0.42 0.41 0.48 0.46 0.47 0.61 0.67 0.56 0.52 0.53 0.57 0.51 0.46 0.44 0.36 0.36 0.37 0.45 0.38 0.34 0.33 0.36 0.40 0.39 0.44 0.64 0.76 0.72 0.69 0.58 0.53 0.55 0.56 0.56 0.61 0.72 0.85 0.89 0.98 0.99 1.03 1.07 1.12 1.00 1.03 0.93 0.93 0.89 0.90 0.85 0.82 0.78 0.79 0.70 0.64 0.66 0.71 0.79 0.82 0.80 0.69 0.71 0.68
0.33 0.34 0.34 0.35 0.40 0.43 0.41 0.37 0.38 0.42 0.44 0.44 0.44 0.46 0.47 0.41 0.41 0.56 0.49 0.52 0.42 0.48 0.59 0.47 0.46 0.46 0.42 0.39 0.41 0.42 0.41 0.35 0.37 0.42 0.44 0.42 0.48 0.54 0.57 0.58 0.53 0.47 0.46 0.51 0.54 0.60 0.66 0.74 0.83 0.96 1.06 1.16 1.08 1.11 1.08 1.02 0.96 0.94 0.89 0.84 0.80 0.81 0.78 0.82 0.84 0.85 0.85 0.81 0.83 0.75 0.74 0.74 0.67 0.63
0.30 0.32 0.35 0.35 0.35 0.39 0.40 0.44 0.47 0.47 0.49 0.49 0.45 0.47 0.50 0.45 0.42 0.46 0.44 0.42 0.43 0.43 0.43 0.38 0.36 0.38 0.40 0.38 0.38 0.40 0.42 0.45 0.45 0.42 0.42 0.38 0.35 0.41 0.49 0.53 0.46 0.45 0.49 0.47 0.50 0.58 0.71 0.73 0.78 0.87 0.94 0.97 0.93 0.90 0.87 0.79 0.77 0.80 0.88 0.78 0.81 0.86 0.83 0.85 0.92 0.88 0.88 0.84 0.81 0.72 0.54 0.45 0.51 0.55
0.30 0.32 0.35 0.38 0.38 0.39 0.43 0.43 0.44 0.46 0.48 0.45 0.46 0.50 0.50 0.42 0.40 0.41 0.45 0.48 0.50 0.45 0.39 0.35 0.32 0.31 0.34 0.33 0.37 0.38 0.41 0.42 0.42 0.48 0.43 0.41 0.43 0.45 0.45 0.47 0.47 0.41 0.39 0.43 0.51 0.52 0.61 0.65 0.74 0.80 0.91 1.00 0.88 0.71 0.61 0.58 0.61 0.66 0.67 0.78 0.86 0.93 0.89 0.86 0.87 0.88 0.90 0.91 0.85 0.77 0.63 0.55 0.52 0.56
0.30 0.32 0.35 0.39 0.42 0.40 0.42 0.46 0.42 0.39 0.38 0.38 0.40 0.44 0.43 0.37 0.35 0.35 0.41 0.45 0.44 0.44 0.42 0.40 0.36 0.33 0.36 0.33 0.32 0.32 0.37 0.41 0.43 0.41 0.42 0.44 0.36 0.36 0.41 0.42 0.43 0.44 0.46 0.49 0.48 0.54 0.61 0.67 0.68 0.71 0.74 0.78 0.79 0.74 0.67 0.60 0.59 0.65 0.72 0.76 0.80 0.79 0.88 0.95 0.84 0.79 0.92 1.02 0.94 0.92 1.04 1.04 0.76 0.77
0.31 0.31 0.32 0.33 0.36 0.37 0.36 0.37 0.38 0.35 0.34 0.36 0.35 0.36 0.40 0.38 0.35 0.39 0.39 0.42 0.41 0.39 0.40 0.41 0.39 0.37 0.39 0.39 0.37 0.35 0.34 0.35 0.33 0.32 0.31 0.37 0.39 0.35 0.33 0.33 0.33 0.37 0.52 0.55 0.54 0.52 0.54 0.56 0.54 0.58 0.58 0.58 0.64 0.70 0.69 0.64 0.67 0.74 0.77 0.83 0.80 0.79 0.93 0.94 0.90 0.87 0.81 0.77 0.85 1.02 0.99 0.88 1.03 0.96
0.30 0.29 0.29 0.30 0.31 0.32 0.31 0.31 0.35 0.35 0.34 0.33 0.32 0.31 0.34 0.36 0.34 0.39 0.41 0.41 0.42 0.43 0.43 0.42 0.43 0.41 0.40 0.42 0.41 0.42 0.38 0.36 0.33 0.32 0.33 0.32 0.35 0.36 0.34 0.35 0.40 0.36 0.43 0.52 0.45 0.45 0.42 0.35 0.36 0.39 0.50 0.60 0.62 0.70 0.93 0.96 0.93 0.92 0.91 0.88 0.82 0.82 0.86 0.92 0.94 0.94 0.90 0.80 0.75 0.82 0.87 0.96 0.94 0.85
0.30 0.29 0.27 0.27 0.28 0.30 0.30 0.29 0.30 0.32 0.32 0.32 0.32 0.32 0.33 0.35 0.35 0.36 0.36 0.33 0.37 0.40 0.43 0.43 0.42 0.40 0.39 0.39 0.38 0.38 0.37 0.35 0.35 0.35 0.36 0.38 0.40 0.35 0.34 0.41 0.45 0.42 0.40 0.38 0.32 0.28 0.25 0.28 0.36 0.41 0.56 0.84 0.86 1.03 1.03 0.83 0.76 0.76 0.79 0.79 0.79 0.83 0.91 0.93 0.87 0.91 1.02 0.98 0.89 0.84 0.89 0.99 0.91 0.88
0.27 0.27 0.27 0.26 0.26 0.27 0.28 0.29 0.28 0.30 0.30 0.32 0.32 0.34 0.35 0.36 0.37 0.39 0.42 0.40 0.40 0.43 0.45 0.44 0.43 0.42 0.43 0.41 0.40 0.41 0.40 0.39 0.39 0.38 0.35 0.37 0.37 0.38 0.37 0.34 0.31 0.31 0.33 0.28 0.24 0.28 0.30 0.35 0.39 0.54 0.59 0.69 0.75 0.79 0.76 0.63 0.58 0.63 0.70 0.72 0.75 0.86 1.05 0.97 0.95 0.93 0.93 0.87 0.79 0.83 0.98 1.06 0.94 0.92
0.29 0.27 0.26 0.26 0.26 0.25 0.26 0.26 0.27 0.27 0.30 0.33 0.36 0.37 0.39 0.41 0.43 0.42 0.44 0.46 0.48 0.50 0.51 0.49 0.46 0.46 0.47 0.45 0.44 0.44 0.45 0.42 0.41 0.40 0.38 0.37 0.34 0.34 0.34 0.34 0.35 0.32 0.38 0.39 0.39 0.41 0.35 0.39 0.54 0.47 0.58 0.60 0.49 0.63 0.64 0.62 0.65 0.60 0.67 0.74 0.87 0.78 0.83 1.01 0.98 0.90 0.90 0.89 0.89 0.79 0.80 0.76 0.74 0.67
0.30 0.29 0.27 0.25 0.24 0.23 0.24 0.24 0.26 0.28 0.30 0.32 0.34 0.36 0.38 0.39 0.40 0.40 0.42 0.46 0.49 0.49 0.49 0.49 0.47 0.49 0.50 0.50 0.51 0.48 0.49 0.46 0.43 0.41 0.40 0.39 0.40 0.37 0.37 0.37 0.41 0.40 0.42 0.41 0.37 0.37 0.36 0.37 0.40 0.43 0.45 0.44 0.45 0.46 0.43 0.47 0.52 0.62 0.66 0.72 0.73 0.68 0.69 0.83 1.00 0.99 1.02 1.10 0.97 0.85 0.80 0.74 0.63 0.56